When you browse on this site, cookies collect data to enhance your experience and personalize the content and advertising you see.
Visit our Privacy Policy to learn more. By continuing to use the site, you agree to this use of cookies and data.
  • In Portugal
  • List of Countries
  • For 7 days
  • Water Temperature
  • Satellite Maps
  • Weather Map
  • Weather Widgets
  • user-avatar
    Login

    Hourly Weather Podwilcze

    Today, 21 May, Tuesday

    Time Temperature Precipitation Wind Pressure Humidity
    00:00 +16°C° 0 mm 2 mps 748 mmHg 92%
    01:00 +15°C° 0 mm 2 mps 748 mmHg 91%
    02:00 +15°C° 0 mm 2 mps 748 mmHg 91%
    03:00 +14°C° 0 mm 2 mps 748 mmHg 91%
    04:00 +14°C° 0 mm 2 mps 748 mmHg 91%
    05:00 +15°C° 0 mm 2 mps 748 mmHg 88%
    06:00 +17°C° 0 mm 2 mps 748 mmHg 85%
    07:00 +18°C° 0 mm 2 mps 748 mmHg 81%
    08:00 +20°C° 0 mm 2 mps 749 mmHg 73%
    09:00 +21°C° 0 mm 2 mps 749 mmHg 65%
    10:00 +24°C° 0 mm 2 mps 749 mmHg 57%
    11:00 +24°C° 0.2 mm 2 mps 749 mmHg 57%
    12:00 +25°C° 0.2 mm 2 mps 749 mmHg 56%
    13:00 +25°C° 0.2 mm 2 mps 749 mmHg 56%
    14:00 +24°C° 0.7 mm 2 mps 749 mmHg 62%
    15:00 +22°C° 0.7 mm 3 mps 749 mmHg 68%
    16:00 +22°C° 0.7 mm 4 mps 749 mmHg 73%
    17:00 +21°C° 0 mm 3 mps 749 mmHg 77%
    18:00 +19°C° 0 mm 3 mps 749 mmHg 81%
    19:00 +18°C° 0 mm 3 mps 749 mmHg 85%
    20:00 +17°C° 0 mm 2 mps 749 mmHg 87%
    21:00 +16°C° 0 mm 2 mps 749 mmHg 89%
    22:00 +15°C° 0 mm 2 mps 749 mmHg 91%
    23:00 +15°C° 0 mm 2 mps 749 mmHg 93%

    Tomorrow, 22 May, Wednesday

    Time Temperature Precipitation Wind Pressure Humidity
    00:00 +15°C° 0 mm 2 mps 749 mmHg 94%
    01:00 +14°C° 0 mm 2 mps 749 mmHg 96%
    02:00 +13°C° 0.3 mm 3 mps 749 mmHg 97%
    03:00 +13°C° 0.3 mm 3 mps 749 mmHg 97%
    04:00 +13°C° 0.3 mm 3 mps 750 mmHg 98%
    05:00 +14°C° 0.5 mm 3 mps 750 mmHg 97%
    06:00 +14°C° 0.5 mm 3 mps 750 mmHg 95%
    07:00 +16°C° 0.5 mm 3 mps 750 mmHg 94%
    08:00 +17°C° 0.2 mm 4 mps 751 mmHg 92%
    09:00 +17°C° 0.2 mm 4 mps 751 mmHg 90%
    10:00 +18°C° 0.2 mm 4 mps 751 mmHg 88%
    11:00 +16°C° 0.2 mm 5 mps 751 mmHg 89%
    12:00 +16°C° 0.2 mm 5 mps 752 mmHg 91%
    13:00 +15°C° 0.2 mm 5 mps 752 mmHg 92%
    14:00 +15°C° 0.1 mm 6 mps 752 mmHg 92%
    15:00 +14°C° 0.1 mm 6 mps 752 mmHg 93%
    16:00 +14°C° 0.1 mm 6 mps 752 mmHg 93%
    17:00 +14°C° 0 mm 6 mps 752 mmHg 92%
    18:00 +13°C° 0 mm 6 mps 753 mmHg 91%
    19:00 +13°C° 0 mm 6 mps 753 mmHg 90%
    20:00 +13°C° 0 mm 6 mps 753 mmHg 90%
    21:00 +11°C° 0 mm 6 mps 754 mmHg 90%
    22:00 +11°C° 0 mm 6 mps 754 mmHg 89%
    23:00 +10°C° 0 mm 6 mps 755 mmHg 89%

    Day after tomorrow, 23 May, Thursday

    Time Temperature Precipitation Wind Pressure Humidity
    00:00 +10°C° 0 mm 6 mps 755 mmHg 88%
    01:00 +10°C° 0 mm 6 mps 755 mmHg 87%
    02:00 +9°C° 0 mm 6 mps 755 mmHg 86%
    03:00 +9°C° 0 mm 6 mps 756 mmHg 85%
    04:00 +9°C° 0 mm 5 mps 756 mmHg 85%
    05:00 +9°C° 0 mm 6 mps 756 mmHg 82%
    06:00 +10°C° 0 mm 6 mps 757 mmHg 79%
    07:00 +10°C° 0 mm 6 mps 757 mmHg 76%
    08:00 +11°C° 0 mm 6 mps 757 mmHg 72%
    09:00 +13°C° 0 mm 6 mps 757 mmHg 68%
    10:00 +13°C° 0 mm 6 mps 758 mmHg 65%
    11:00 +14°C° 0 mm 6 mps 758 mmHg 63%
    12:00 +14°C° 0 mm 6 mps 758 mmHg 61%
    13:00 +15°C° 0 mm 5 mps 758 mmHg 60%
    14:00 +15°C° 0 mm 5 mps 758 mmHg 59%
    15:00 +14°C° 0 mm 5 mps 757 mmHg 58%
    16:00 +14°C° 0 mm 5 mps 757 mmHg 57%
    17:00 +13°C° 0 mm 4 mps 757 mmHg 62%
    18:00 +12°C° 0 mm 3 mps 757 mmHg 67%
    19:00 +12°C° 0 mm 2 mps 757 mmHg 72%
    20:00 +10°C° 0 mm 2 mps 757 mmHg 72%
    21:00 +9°C° 0 mm 2 mps 757 mmHg 72%
    22:00 +8°C° 0 mm 2 mps 757 mmHg 72%
    23:00 +8°C° 0 mm 2 mps 757 mmHg 72%

    24 May, Friday

    Time Temperature Precipitation Wind Pressure Humidity
    00:00 +9°C° 0 mm 2 mps 757 mmHg 72%
    01:00 +9°C° 0 mm 2 mps 757 mmHg 71%
    02:00 +8°C° 0 mm 3 mps 756 mmHg 73%
    03:00 +8°C° 0 mm 3 mps 756 mmHg 75%
    04:00 +8°C° 0 mm 3 mps 756 mmHg 77%
    05:00 +10°C° 0 mm 3 mps 756 mmHg 76%
    06:00 +11°C° 0 mm 3 mps 756 mmHg 74%
    07:00 +13°C° 0 mm 3 mps 755 mmHg 73%
    08:00 +14°C° 0 mm 3 mps 755 mmHg 70%
    09:00 +17°C° 0 mm 3 mps 755 mmHg 68%
    10:00 +18°C° 0 mm 3 mps 755 mmHg 65%
    11:00 +19°C° 0.4 mm 2 mps 754 mmHg 66%
    12:00 +19°C° 0.4 mm 2 mps 754 mmHg 67%
    13:00 +19°C° 0.4 mm 2 mps 754 mmHg 67%
    14:00 +19°C° 0.4 mm 2 mps 753 mmHg 67%
    15:00 +20°C° 0.4 mm 1 mps 753 mmHg 66%
    16:00 +20°C° 0.4 mm 1 mps 752 mmHg 66%
    17:00 +20°C° 0.3 mm 1 mps 752 mmHg 71%
    18:00 +19°C° 0.3 mm 1 mps 752 mmHg 76%
    19:00 +17°C° 0.3 mm 2 mps 751 mmHg 82%
    20:00 +16°C° 0.1 mm 2 mps 751 mmHg 84%
    21:00 +15°C° 0.1 mm 2 mps 751 mmHg 86%
    22:00 +14°C° 0.1 mm 2 mps 751 mmHg 89%
    23:00 +13°C° 0.1 mm 2 mps 751 mmHg 90%

    25 May, Saturday

    Time Temperature Precipitation Wind Pressure Humidity
    00:00 +12°C° 0.1 mm 3 mps 751 mmHg 91%
    01:00 +11°C° 0.1 mm 3 mps 751 mmHg 92%
    02:00 +11°C° 0.1 mm 3 mps 751 mmHg 92%
    03:00 +11°C° 0.1 mm 3 mps 750 mmHg 92%
    04:00 +11°C° 0.1 mm 3 mps 750 mmHg 92%
    05:00 +11°C° 0.2 mm 3 mps 750 mmHg 92%
    06:00 +12°C° 0.2 mm 3 mps 750 mmHg 92%
    07:00 +13°C° 0.2 mm 3 mps 751 mmHg 92%
    08:00 +13°C° 0.8 mm 3 mps 751 mmHg 92%
    09:00 +13°C° 0.8 mm 3 mps 751 mmHg 93%
    10:00 +13°C° 0.8 mm 3 mps 751 mmHg 93%
    11:00 +13°C° 0.1 mm 4 mps 751 mmHg 87%
    12:00 +14°C° 0.1 mm 5 mps 752 mmHg 81%
    13:00 +14°C° 0.1 mm 5 mps 752 mmHg 75%
    14:00 +14°C° 0 mm 6 mps 752 mmHg 74%
    15:00 +14°C° 0 mm 6 mps 752 mmHg 73%
    16:00 +13°C° 0 mm 6 mps 752 mmHg 71%
    17:00 +13°C° 0 mm 5 mps 752 mmHg 74%
    18:00 +12°C° 0 mm 4 mps 752 mmHg 76%
    19:00 +11°C° 0 mm 4 mps 752 mmHg 79%
    20:00 +11°C° 0 mm 4 mps 752 mmHg 80%
    21:00 +11°C° 0 mm 4 mps 753 mmHg 81%
    22:00 +11°C° 0 mm 4 mps 753 mmHg 82%
    23:00 +10°C° 0 mm 4 mps 753 mmHg 86%

    26 May, Sunday

    Time Temperature Precipitation Wind Pressure Humidity
    00:00 +8°C° 0 mm 4 mps 753 mmHg 89%
    01:00 +7°C° 0 mm 4 mps 753 mmHg 93%
    02:00 +7°C° 0 mm 4 mps 753 mmHg 90%
    03:00 +7°C° 0 mm 4 mps 753 mmHg 88%
    04:00 +7°C° 0 mm 4 mps 753 mmHg 85%
    05:00 +8°C° 0 mm 4 mps 753 mmHg 84%
    06:00 +9°C° 0 mm 5 mps 753 mmHg 82%
    07:00 +9°C° 0 mm 5 mps 753 mmHg 80%
    08:00 +9°C° 0 mm 5 mps 753 mmHg 80%
    09:00 +10°C° 0 mm 5 mps 754 mmHg 79%
    10:00 +11°C° 0 mm 4 mps 754 mmHg 79%
    11:00 +12°C° 0.1 mm 4 mps 753 mmHg 76%
    12:00 +13°C° 0.1 mm 4 mps 753 mmHg 74%
    13:00 +14°C° 0.1 mm 4 mps 753 mmHg 71%
    14:00 +14°C° 0.1 mm 4 mps 753 mmHg 72%
    15:00 +14°C° 0.1 mm 4 mps 753 mmHg 72%
    16:00 +15°C° 0.1 mm 4 mps 753 mmHg 73%
    17:00 +14°C° 0.1 mm 4 mps 752 mmHg 76%
    18:00 +13°C° 0.1 mm 3 mps 752 mmHg 79%
    19:00 +12°C° 0.1 mm 3 mps 752 mmHg 82%
    20:00 +11°C° 0 mm 3 mps 752 mmHg 85%
    21:00 +10°C° 0 mm 3 mps 753 mmHg 88%
    22:00 +8°C° 0 mm 3 mps 753 mmHg 91%
    23:00 +8°C° 0 mm 3 mps 753 mmHg 92%
    Show more